Clinton, MO

12:28 AM CST on December 13, 2017 (GMT -0600)
Clinton Memorial

Weather History for KGLY - March, 2013

Change the Weather History Date:

Friday, March 29, 2013

  Actual Average (KSZL) Record (KSZL)
Temperature  
Mean Temperature 55 °F -  
Max Temperature 66 °F 59 °F 78 °F (2005)
Min Temperature 44 °F 38 °F 29 °F (2009)
Degree Days  
Heating Degree Days 10    
Growing Degree Days 5 (Base 50)    
Moisture  
Dew Point 47 °F    
Average Humidity 77    
Maximum Humidity 100    
Minimum Humidity 49    
Precipitation  
Precipitation 0.00 in - - ()
Sea Level Pressure  
Sea Level Pressure 30.17 in    
Wind  
Wind Speed 4 mph (ENE)    
Max Wind Speed 10 mph    
Max Gust Speed -    
Visibility 9 miles    
Events Rain    
Averages and records for this station are not official NWS values.
T = Trace of Precipitation, MM = Missing Value Source: NWS Daily Summary

Daily Weather History Graph

Daily Weather History Graph

Search for Another Location

Airport or City:

Trip Planner

Search our weather history database for the weather conditions in past years. The results will help you decide how hot, cold, wet, or windy it might be!

Date:

Astronomy

Mar. 29, 2013 Rise Set
Actual Time 7:03 AM CDT 7:35 PM CDT
Civil Twilight 6:37 AM CDT 8:02 PM CDT
Nautical Twilight 6:06 AM CDT 8:33 PM CDT
Astronomical Twilight 5:34 AM CDT 9:05 PM CDT
Moon 10:33 PM CDT (3/29) 8:15 AM CDT (3/29)
Length of Visible Light 13h 24m
Length of Day
12h 31m
Waning Gibbous, 93% of the Moon is Illuminated
Mar 29
Waning Gibbous
Apr 2
Last Quarter
Apr 10
New
Apr 18
First Quarter
Apr 25
Full

Hourly Weather History & Observations

Time (CDT) Temp. Windchill Dew Point Humidity Pressure Visibility Wind Dir Wind Speed Gust Speed Precip Events Conditions
12:15 AM 51.8 °F - 46.4 °F 82% 30.17 in 4.0 mi East 5.8 mph - N/A Rain Rain
12:35 AM 51.8 °F - 46.4 °F 82% 30.18 in 7.0 mi Calm Calm - N/A   Light Drizzle
12:55 AM 51.8 °F - 48.2 °F 88% 30.17 in 5.0 mi Calm Calm - N/A Rain Light Rain
1:15 AM 50.0 °F - 46.4 °F 87% 30.16 in 10.0 mi ENE 6.9 mph - N/A   Mostly Cloudy
1:35 AM 50.0 °F - 46.4 °F 87% 30.17 in 10.0 mi ENE 5.8 mph - N/A   Scattered Clouds
1:55 AM 50.0 °F - 46.4 °F 87% 30.17 in 10.0 mi ENE 4.6 mph - N/A   Mostly Cloudy
2:15 AM 50.0 °F - 48.2 °F 94% 30.18 in 10.0 mi North 5.8 mph - N/A   Overcast
2:35 AM 50.0 °F - 46.4 °F 87% 30.17 in 10.0 mi ENE 4.6 mph - N/A   Overcast
2:55 AM 48.2 °F - 46.4 °F 93% 30.17 in 10.0 mi NE 4.6 mph - N/A   Scattered Clouds
3:15 AM 48.2 °F - 46.4 °F 93% 30.17 in 10.0 mi East 4.6 mph - N/A   Scattered Clouds
3:55 AM 48.2 °F - 46.4 °F 93% 30.15 in 10.0 mi ESE 6.9 mph - N/A   Scattered Clouds
4:15 AM 48.2 °F - 46.4 °F 93% 30.14 in 10.0 mi SE 6.9 mph - N/A   Scattered Clouds
4:35 AM 48.2 °F - 46.4 °F 93% 30.15 in 10.0 mi Calm Calm - N/A   Mostly Cloudy
4:55 AM 48.2 °F - 46.4 °F 93% 30.15 in 10.0 mi Calm Calm - N/A   Mostly Cloudy
5:15 AM 48.2 °F - 46.4 °F 93% 30.15 in 10.0 mi Calm Calm - N/A   Scattered Clouds
5:55 AM 46.4 °F - 46.4 °F 100% 30.16 in 8.0 mi Calm Calm - N/A   Mostly Cloudy
6:15 AM 46.4 °F 44.3 °F 46.4 °F 100% 30.17 in 9.0 mi NE 4.6 mph - N/A   Mostly Cloudy
6:35 AM 46.4 °F 42.9 °F 44.6 °F 93% 30.17 in 9.0 mi NNE 6.9 mph - N/A   Scattered Clouds
6:55 AM 44.6 °F 41.4 °F 44.6 °F 100% 30.17 in 5.0 mi NE 5.8 mph - N/A   Partly Cloudy
7:15 AM 44.6 °F 40.7 °F 44.6 °F 100% 30.18 in 5.0 mi NE 6.9 mph - N/A   Scattered Clouds
7:35 AM 44.6 °F 41.4 °F 44.6 °F 100% 30.19 in 3.0 mi NE 5.8 mph - N/A   Partly Cloudy
7:55 AM 44.6 °F - 44.6 °F 100% 30.20 in 4.0 mi Calm Calm - N/A   Partly Cloudy
8:15 AM 44.6 °F - 42.8 °F 93% 30.21 in 5.0 mi Calm Calm - N/A   Partly Cloudy
8:35 AM 46.4 °F 42.9 °F 42.8 °F 87% 30.20 in 5.0 mi NE 6.9 mph - N/A   Clear
8:55 AM 46.4 °F 42.9 °F 44.6 °F 93% 30.21 in 5.0 mi ENE 6.9 mph - N/A   Clear
9:15 AM 48.2 °F - 46.4 °F 93% 30.21 in 6.0 mi ENE 5.8 mph - N/A   Clear
9:35 AM 50.0 °F - 46.4 °F 87% 30.21 in 6.0 mi ENE 6.9 mph - N/A   Clear
9:55 AM 51.8 °F - 46.4 °F 82% 30.22 in 7.0 mi Calm Calm - N/A   Clear
10:15 AM 53.6 °F - 48.2 °F 82% 30.22 in 8.0 mi Calm Calm - N/A   Clear
10:35 AM 53.6 °F - 48.2 °F 82% 30.22 in 9.0 mi Calm Calm - N/A   Clear
10:55 AM 55.4 °F - 50.0 °F 82% 30.21 in 9.0 mi NE 6.9 mph - N/A   Clear
11:15 AM 57.2 °F - 50.0 °F 77% 30.21 in 9.0 mi ENE 10.4 mph - N/A   Clear
11:35 AM 59.0 °F - 50.0 °F 72% 30.21 in 10.0 mi ENE 10.4 mph - N/A   Clear
11:55 AM 60.8 °F - 51.8 °F 72% 30.21 in 10.0 mi ENE 9.2 mph - N/A   Clear
12:15 PM 60.8 °F - 50.0 °F 68% 30.21 in 10.0 mi ENE 10.4 mph - N/A   Clear
12:35 PM 62.6 °F - 50.0 °F 63% 30.20 in 10.0 mi ENE 9.2 mph - N/A   Clear
12:55 PM 62.6 °F - 51.8 °F 68% 30.20 in 9.0 mi East 9.2 mph - N/A   Clear
1:15 PM 62.6 °F - 50.0 °F 63% 30.19 in 10.0 mi NE 6.9 mph - N/A   Clear
1:35 PM 64.4 °F - 51.8 °F 64% 30.19 in 10.0 mi NE 5.8 mph - N/A   Clear
1:55 PM 64.4 °F - 51.8 °F 64% 30.18 in 10.0 mi ENE 6.9 mph - N/A   Partly Cloudy
2:15 PM 64.4 °F - 51.8 °F 64% 30.18 in 10.0 mi NE 6.9 mph - N/A   Clear
2:35 PM 66.2 °F - 50.0 °F 56% 30.17 in 10.0 mi ENE 6.9 mph - N/A   Clear
2:55 PM 64.4 °F - 48.2 °F 56% 30.16 in 10.0 mi NE 4.6 mph - N/A   Clear
3:15 PM 66.2 °F - 48.2 °F 52% 30.16 in 9.0 mi Calm Calm - N/A   Clear
3:35 PM 66.2 °F - 48.2 °F 52% 30.15 in 10.0 mi ENE 4.6 mph - N/A   Partly Cloudy
3:55 PM 66.2 °F - 48.2 °F 52% 30.14 in 10.0 mi NE 8.1 mph - N/A   Scattered Clouds
4:15 PM 64.4 °F - 46.4 °F 52% 30.14 in 10.0 mi SE 3.5 mph - N/A   Partly Cloudy
4:35 PM 66.2 °F - 46.4 °F 49% 30.13 in 10.0 mi ESE 5.8 mph - N/A   Partly Cloudy
4:55 PM 66.2 °F - 46.4 °F 49% 30.13 in 10.0 mi ESE 4.6 mph - N/A   Clear
5:15 PM 66.2 °F - 46.4 °F 49% 30.13 in 10.0 mi ESE 8.1 mph - N/A   Partly Cloudy
5:35 PM 64.4 °F - 46.4 °F 52% 30.14 in 10.0 mi Calm Calm - N/A   Partly Cloudy
5:55 PM 66.2 °F - 46.4 °F 49% 30.14 in 10.0 mi ESE 9.2 mph - N/A   Clear
6:15 PM 66.2 °F - 46.4 °F 49% 30.14 in 10.0 mi SSE 8.1 mph - N/A   Partly Cloudy
6:35 PM 64.4 °F - 46.4 °F 52% 30.14 in 10.0 mi SE 6.9 mph - N/A   Clear
6:55 PM 64.4 °F - 46.4 °F 52% 30.14 in 10.0 mi SE 5.8 mph - N/A   Clear
7:15 PM 62.6 °F - 48.2 °F 59% 30.14 in 10.0 mi SE 6.9 mph - N/A   Clear
7:35 PM 60.8 °F - 48.2 °F 63% 30.14 in 10.0 mi Calm Calm - N/A   Clear
8:15 PM 57.2 °F - 48.2 °F 72% 30.15 in 10.0 mi Calm Calm - N/A   Clear
8:35 PM 57.2 °F - 48.2 °F 72% 30.15 in 10.0 mi Calm Calm - N/A   Clear
8:55 PM 55.4 °F - 48.2 °F 77% 30.15 in 10.0 mi Calm Calm - N/A   Clear
9:15 PM 55.4 °F - 48.2 °F 77% 30.15 in 10.0 mi Calm Calm - N/A   Clear
9:35 PM 53.6 °F - 48.2 °F 82% 30.15 in 10.0 mi Calm Calm - N/A   Clear
9:55 PM 51.8 °F - 46.4 °F 82% 30.15 in 10.0 mi Calm Calm - N/A   Clear
10:15 PM 50.0 °F - 46.4 °F 87% 30.15 in 10.0 mi Calm Calm - N/A   Clear
10:35 PM 48.2 °F - 46.4 °F 93% 30.15 in 10.0 mi Calm Calm - N/A   Clear
10:55 PM 48.2 °F - 44.6 °F 87% 30.15 in 10.0 mi Calm Calm - N/A   Clear
11:15 PM 48.2 °F - 46.4 °F 93% 30.15 in 10.0 mi Calm Calm - N/A   Clear
11:35 PM 48.2 °F - 44.6 °F 87% 30.14 in 10.0 mi Calm Calm - N/A   Clear
11:55 PM 48.2 °F - 44.6 °F 87% 30.13 in 10.0 mi Calm Calm - N/A   Clear